User: anonymous   Login
Location: Владивосток
(43.1151°N, 131.8856°E)
Time: 10:34:22
(UTC+10:00)
Language:

RS-44 - Orbit

View from above orbital plane
View from above orbital plane
View from above satellite
View from above satellite

Ground track
Ground track

The orbit data is extracted from the following two-line orbital elements,

1 44909U 19096E   24109.53767118  .00000026  00000-0  58600-4 0  9996
2 44909  82.5195 144.4137 0217338 190.3703 169.2879 12.79728508201340
Epoch (UTC): 18 April 2024 12:54:14
Eccentricity: 0.0217338
inclination: 82.5195°
perigee height: 1175 km
apogee height: 1510 km
right ascension of ascending node: 144.4137°
argument of perigee: 190.3703°
revolutions per day: 12.79728508
mean anomaly at epoch: 169.2879°
orbit number at epoch: 20134

The dashed part of the orbit path shows where the satellite is in the earth's shadow,  

DLR